DW8945 Weather Reports


Display with metric or nautical units.
time (UTC)temp
F
wind
direction
speed
MPH
gust
MPH
rain 1hr
in
rain 24hr
in
rain mn
in
humidity
%
barometer
mb
20260902191401 74 142 5.0 13.0 0.00 0.01 0.01 64 1019.8
20260902190905 74 98 6.0 13.0 0.00 0.01 0.01 63 1019.9
20260902190359 74 122 5.0 11.0 0.00 0.01 0.01 64 1020.1
20260902185851 74 128 6.0 11.0 0.00 0.01 0.01 63 1020.2
20260902185354 74 92 5.0 9.0 0.00 0.01 0.01 63 1020.0
20260902184856 74 115 5.0 9.0 0.00 0.01 0.01 62 1020.1
20260902184357 74 169 4.0 10.0 0.00 0.01 0.01 63 1019.9
20260902183901 75 107 5.0 13.0 0.00 0.01 0.01 62 1019.9
20260902183401 75 109 7.0 13.0 0.00 0.01 0.01 62 1019.9
20260902182904 75 93 5.0 10.0 0.00 0.01 0.01 61 1019.8
20260902182348 75 101 4.0 10.0 0.00 0.01 0.01 62 1019.8
20260902181851 75 161 3.0 10.0 0.00 0.01 0.01 62 1019.9
20260902181355 75 169 5.0 10.0 0.00 0.01 0.01 62 1019.9
20260902180902 75 134 4.0 9.0 0.00 0.01 0.01 63 1019.9
20260902180356 75 108 4.0 13.0 0.00 0.01 0.01 63 1019.8
20260902175845 75 156 3.0 13.0 0.00 0.01 0.01 63 1019.8
20260902175351 75 125 5.0 9.0 0.00 0.01 0.01 64 1019.9
20260902174855 75 122 4.0 9.0 0.00 0.01 0.01 64 1020.0
20260902174402 75 152 2.0 8.0 0.00 0.01 0.01 65 1019.9
20260902173848 75 136 4.0 7.0 0.00 0.01 0.01 65 1020.0
20260902173412 75 114 3.0 7.0 0.00 0.01 0.01 65 1020.0
20260902172856 75 162 4.0 8.0 0.00 0.01 0.01 65 1020.0
20260902172402 75 170 5.0 8.0 0.00 0.01 0.01 65 1020.1
20260902171923 75 104 3.0 9.0 0.00 0.01 0.01 66 1020.1
20260902171344 75 120 3.0 9.0 0.00 0.01 0.01 66 1020.2
20260902170849 74 118 3.0 9.0 0.00 0.01 0.01 67 1020.3
20260902170349 74 113 3.0 7.0 0.00 0.01 0.01 67 1020.3
20260902165859 74 160 4.0 8.0 0.00 0.01 0.01 68 1020.4
20260902165403 74 92 5.0 8.0 0.00 0.01 0.01 68 1020.4
20260902164845 74 135 2.0 9.0 0.00 0.01 0.01 68 1020.5
20260902164351 73 174 3.0 9.0 0.00 0.01 0.01 69 1020.6
20260902163856 73 65 3.0 9.0 0.00 0.01 0.01 69 1020.5
20260902163357 73 109 4.0 9.0 0.00 0.01 0.01 70 1020.6
20260902162900 73 114 4.0 8.0 0.00 0.01 0.01 70 1020.6
20260902162345 73 144 4.0 9.0 0.00 0.01 0.01 69 1020.7
20260902161848 73 78 4.0 8.0 0.00 0.01 0.01 69 1020.7
20260902161353 73 107 2.0 8.0 0.00 0.01 0.01 70 1020.6
20260902160855 73 107 3.0 8.0 0.00 0.01 0.01 70 1020.7
20260902160404 72 117 3.0 8.0 0.00 0.01 0.01 70 1020.6
20260902155848 72 161 3.0 7.0 0.00 0.01 0.01 69 1020.7
20260902155414 73 145 1.0 9.0 0.00 0.01 0.01 69 1020.7
20260902154853 73 140 3.0 9.0 0.00 0.01 0.01 69 1021.0
20260902154357 73 83 4.0 8.0 0.00 0.01 0.01 68 1021.0
20260902153901 73 147 1.0 6.0 0.00 0.01 0.01 70 1021.1
20260902153359 73 147 2.0 6.0 0.00 0.01 0.01 71 1021.3
20260902152902 73 155 3.0 8.0 0.00 0.01 0.01 72 1021.3
20260902152344 73 139 3.0 8.0 0.00 0.01 0.01 71 1021.2
20260902151847 72 57 1.0 8.0 0.00 0.01 0.01 71 1021.2
20260902151412 72 144 3.0 9.0 0.00 0.01 0.01 72 1021.2
20260902150915 72 86 4.0 9.0 0.00 0.01 0.01 71 1021.3
20260902150344 72 138 2.0 9.0 0.00 0.01 0.01 72 1021.3
20260902145853 72 100 5.0 9.0 0.00 0.02 0.01 71 1021.2
20260902145355 72 115 4.0 10.0 0.00 0.02 0.01 72 1021.2
20260902144853 72 95 5.0 10.0 0.00 0.02 0.01 71 1021.1
20260902144356 73 49 2.0 9.0 0.00 0.02 0.01 73 1021.0
20260902143919 72 166 2.0 7.0 0.00 0.02 0.01 73 1021.0
20260902143401 72 98 2.0 6.0 0.00 0.02 0.01 74 1020.9
20260902142844 72 140 1.0 7.0 0.00 0.02 0.01 76 1021.0
20260902142411 71 144 3.0 9.0 0.00 0.02 0.01 76 1021.0
20260902141907 71 93 4.0 9.0 0.00 0.02 0.01 78 1020.8
20260902141352 71 135 4.0 7.0 0.00 0.02 0.01 79 1020.8
20260902140919 71 131 4.0 8.0 0.00 0.02 0.01 80 1020.6
20260902140354 70 145 4.0 9.0 0.00 0.02 0.01 82 1020.6
20260902135845 70 87 5.0 9.0 0.00 0.02 0.01 84 1020.5
20260902135351 70 103 2.0 9.0 0.01 0.02 0.01 87 1020.4
20260902134915 69 134 2.0 9.0 0.01 0.02 0.01 88 1020.2
20260902134419 69 113 3.0 7.0 0.01 0.02 0.01 89 1020.4
20260902133845 68 157 1.0 7.0 0.01 0.02 0.01 90 1020.4
20260902133407 68 124 3.0 7.0 0.01 0.02 0.01 91 1020.3
20260902132912 67 102 4.0 7.0 0.01 0.02 0.01 92 1020.3
20260902132354 67 85 3.0 7.0 0.01 0.02 0.01 92 1020.3
20260902131859 67 97 2.0 5.0 0.01 0.02 0.01 93 1020.2
20260902131345 66 93 1.0 5.0 0.01 0.02 0.01 93 1020.3
20260902130850 66 90 2.0 6.0 0.01 0.02 0.01 93 1020.5
20260902130346 66 87 2.0 6.0 0.01 0.02 0.01 93 1020.6
20260902125858 66 184 2.0 5.0 0.01 0.02 0.01 94 1020.6
20260902125404 65 185 0.0 3.0 0.00 0.01 0.00 94 1020.6
20260902124845 65 185 1.0 3.0 0.00 0.01 0.00 94 1020.6
20260902124351 65 185 0.0 2.0 0.00 0.01 0.00 94 1020.7
20260902123857 65 185 0.0 4.0 0.00 0.01 0.00 94 1020.8
20260902123358 65 185 0.0 4.0 0.00 0.01 0.00 94 1020.7
20260902122844 65 185 1.0 4.0 0.00 0.01 0.00 94 1020.6
20260902122411 64 198 1.0 4.0 0.00 0.01 0.00 95 1020.7
20260902121914 64 198 1.0 3.0 0.00 0.01 0.00 95 1020.7
20260902121400 64 214 0.0 2.0 0.00 0.01 0.00 94 1020.9
20260902120845 64 219 0.0 2.0 0.00 0.01 0.00 94 1020.8
20260902120422 64 219 0.0 2.0 0.00 0.01 0.00 95 1020.9
20260902115849 64 224 0.0 1.0 0.00 0.01 0.00 95 1020.9
20260902115356 63 224 0.0 1.0 0.00 0.01 0.00 95 1021.0
20260902114857 63 224 0.0 1.0 0.00 0.01 0.00 95 1021.0
20260902114345 63 224 0.0 0.0 0.00 0.01 0.00 95 1021.0
20260902113851 63 224 0.0 1.0 0.00 0.01 0.00 95 1021.0
20260902113354 63 224 0.0 1.0 0.00 0.01 0.00 95 1021.0
20260902112900 63 224 0.0 0.0 0.00 0.01 0.00 95 1020.9
20260902112346 63 224 0.0 0.0 0.00 0.01 0.00 95 1020.8
20260902111846 63 224 0.0 0.0 0.00 0.01 0.00 95 1020.9
20260902111352 63 224 0.0 0.0 0.00 0.01 0.00 95 1020.9
20260902110858 63 224 0.0 0.0 0.00 0.01 0.00 95 1020.8
20260902110350 62 224 0.0 0.0 0.00 0.01 0.00 95 1020.7
20260902105900 62 224 0.0 0.0 0.00 0.01 0.00 95 1020.7
20260902105344 62 224 0.0 0.0 0.00 0.01 0.00 95 1020.5
20260902104845 62 224 0.0 0.0 0.00 0.01 0.00 95 1020.3
20260902104351 62 224 0.0 0.0 0.00 0.01 0.00 95 1020.3
20260902103856 62 224 0.0 1.0 0.00 0.01 0.00 95 1020.2
20260902103358 62 224 0.0 1.0 0.00 0.01 0.00 95 1020.2
20260902102842 62 224 0.0 0.0 0.00 0.01 0.00 95 1020.3
20260902102346 62 224 0.0 0.0 0.00 0.01 0.00 95 1020.3
20260902101850 62 224 0.0 0.0 0.00 0.01 0.00 95 1020.1
20260902101355 62 224 0.0 0.0 0.00 0.01 0.00 95 1020.1
20260902100901 62 224 0.0 0.0 0.00 0.01 0.00 95 1020.0
20260902100357 62 224 0.0 0.0 0.00 0.01 0.00 95 1020.0
20260902095848 62 224 0.0 0.0 0.00 0.01 0.00 95 1020.0
20260902095354 62 224 0.0 0.0 0.00 0.01 0.00 95 1019.8
20260902094857 62 224 0.0 0.0 0.00 0.01 0.00 95 1019.8
20260902094402 62 224 0.0 0.0 0.00 0.01 0.00 95 1019.9
20260902093848 62 224 0.0 0.0 0.00 0.01 0.00 95 1019.8
20260902093351 62 224 0.0 1.0 0.00 0.01 0.00 95 1019.6
20260902092857 62 224 0.0 1.0 0.00 0.01 0.00 95 1019.5
20260902092401 62 224 0.0 1.0 0.00 0.01 0.00 95 1019.6
20260902091923 62 224 0.0 0.0 0.00 0.01 0.00 95 1019.6
20260902091347 62 224 0.0 0.0 0.00 0.01 0.00 95 1019.6
20260902090854 62 224 0.0 0.0 0.00 0.01 0.00 95 1019.7
20260902090352 62 224 0.0 0.0 0.00 0.01 0.00 95 1019.7
20260902085842 62 224 0.0 0.0 0.00 0.01 0.00 95 1019.5
20260902085349 62 224 0.0 0.0 0.00 0.01 0.00 95 1019.5
20260902084852 63 224 0.0 0.0 0.00 0.01 0.00 95 1019.5
20260902084357 63 224 0.0 0.0 0.00 0.01 0.00 95 1019.5
20260902083842 63 224 0.0 0.0 0.00 0.01 0.00 95 1019.5
20260902083345 63 224 0.0 0.0 0.00 0.01 0.00 95 1019.4
20260902082851 63 224 0.0 0.0 0.00 0.01 0.00 95 1019.3
20260902082357 63 224 0.0 1.0 0.00 0.01 0.00 95 1019.3
20260902081859 63 224 0.0 1.0 0.00 0.01 0.00 95 1019.4
20260902081344 63 224 0.0 0.0 0.00 0.01 0.00 95 1019.4
20260902080911 63 224 0.0 0.0 0.00 0.01 0.00 95 1019.3
20260902080345 63 224 0.0 0.0 0.00 0.01 0.00 95 1019.3
20260902075855 63 224 0.0 0.0 0.00 0.01 0.00 95 1019.3
20260902075342 63 224 0.0 0.0 0.00 0.01 0.00 95 1019.4
20260902074846 63 224 0.0 0.0 0.00 0.01 0.00 95 1019.5
20260902074350 63 224 0.0 0.0 0.00 0.01 0.00 95 1019.6
20260902073858 63 224 0.0 0.0 0.00 0.01 0.00 95 1019.7
20260902073419 63 224 0.0 0.0 0.00 0.01 0.00 95 1019.7
20260902072905 63 224 0.0 0.0 0.00 0.01 0.00 95 1019.6
20260902072349 63 224 0.0 0.0 0.00 0.01 0.00 95 1019.5
20260902071851 63 224 0.0 0.0 0.00 0.01 0.00 95 1019.4
20260902071356 63 224 0.0 0.0 0.00 0.01 0.00 95 1019.4
20260902070843 63 224 0.0 0.0 0.00 0.01 0.00 95 1019.3
20260902070359 63 224 0.0 0.0 0.00 0.01 0.00 95 1019.3
20260902065848 63 224 0.0 0.0 0.00 0.01 0.00 95 1019.3
20260902065353 63 224 0.0 0.0 0.00 0.01 0.00 95 1019.3
20260902064857 63 224 0.0 0.0 0.00 0.01 0.00 95 1019.4
20260902064401 63 224 0.0 0.0 0.00 0.01 0.00 95 1019.4
20260902063847 63 224 0.0 0.0 0.00 0.01 0.00 95 1019.4
20260902063350 63 224 0.0 0.0 0.00 0.01 0.00 95 1019.4
20260902062854 63 224 0.0 0.0 0.00 0.01 0.00 95 1019.4
20260902062401 63 224 0.0 0.0 0.00 0.01 0.00 95 1019.4
20260902061843 63 224 0.0 0.0 0.00 0.01 0.00 95 1019.4
20260902061407 63 224 0.0 0.0 0.00 0.01 0.00 95 1019.4
20260902060852 63 224 0.0 0.0 0.00 0.01 0.00 95 1019.3
20260902060351 63 224 0.0 0.0 0.00 0.01 0.00 95 1019.3
20260902055841 63 224 0.0 0.0 0.00 0.01 0.00 95 1019.4
20260902055347 63 224 0.0 0.0 0.00 0.01 0.00 95 1019.3
20260902054849 63 224 0.0 1.0 0.00 0.01 0.00 95 1019.3
20260902054356 63 224 0.0 0.0 0.00 0.01 0.00 95 1019.4
20260902053921 63 224 0.0 0.0 0.00 0.01 0.00 95 1019.3
20260902053343 63 224 0.0 0.0 0.00 0.01 0.00 95 1019.3
20260902052850 63 224 0.0 0.0 0.00 0.01 0.00 95 1019.4
20260902052356 63 224 0.0 0.0 0.00 0.01 0.00 95 1019.3
20260902051843 63 224 0.0 1.0 0.00 0.01 0.00 95 1019.2
20260902051346 63 224 0.0 1.0 0.00 0.01 0.00 95 1019.1
20260902050851 63 224 0.0 0.0 0.00 0.01 0.00 94 1019.0
20260902050351 63 224 0.0 0.0 0.00 0.01 0.00 94 1019.1
20260902045843 63 224 0.0 0.0 0.00 0.01 0.00 94 1019.2
20260902045351 63 224 0.0 0.0 0.00 0.01 0.00 94 1019.1
20260902044854 63 224 0.0 1.0 0.00 0.01 0.00 94 1019.1
20260902044418 63 224 0.0 1.0 0.00 0.01 0.00 94 1019.1
20260902043844 63 224 0.0 0.0 0.00 0.01 0.00 94 1019.0
20260902043348 62 224 0.0 0.0 0.00 0.01 0.00 94 1018.9
20260902042914 62 224 0.0 0.0 0.00 0.01 0.00 94 1018.8
20260902042341 62 224 0.0 2.0 0.00 0.01 0.00 94 1018.7
20260902041844 63 224 0.0 2.0 0.00 0.01 0.00 94 1018.6
20260902041350 63 224 0.0 0.0 0.00 0.01 0.00 94 1018.5
20260902040857 63 224 0.0 0.0 0.00 0.01 0.00 94 1018.4
20260902040349 63 224 0.0 0.0 0.00 0.01 0.00 94 1018.3
20260902035912 63 224 0.0 0.0 0.00 0.01 0.01 94 1018.1
20260902035358 63 224 0.0 0.0 0.00 0.01 0.01 94 1018.0
20260902034859 63 224 0.0 0.0 0.00 0.01 0.01 94 1018.1
20260902034344 63 224 0.0 0.0 0.00 0.01 0.01 94 1018.1
20260902033850 63 224 0.0 0.0 0.00 0.01 0.01 94 1018.1
20260902033353 63 224 0.0 0.0 0.00 0.01 0.01 94 1018.1
20260902032856 63 224 0.0 0.0 0.00 0.01 0.01 94 1018.1
20260902032343 63 224 0.0 0.0 0.00 0.01 0.01 94 1018.0
20260902031845 63 224 0.0 1.0 0.00 0.01 0.01 94 1018.0
20260902031350 63 224 0.0 1.0 0.00 0.01 0.01 94 1018.0
20260902030855 63 224 0.0 0.0 0.00 0.01 0.01 94 1018.1
20260902030412 63 224 0.0 1.0 0.00 0.01 0.01 94 1018.3
20260902025921 63 224 0.0 2.0 0.00 0.01 0.01 94 1018.3
20260902025404 63 224 0.0 1.0 0.00 0.01 0.01 94 1018.3
20260902024845 63 224 0.0 1.0 0.00 0.01 0.01 94 1018.2
20260902024345 63 224 0.0 1.0 0.00 0.01 0.01 94 1018.2
20260902023850 63 224 0.0 0.0 0.00 0.01 0.01 94 1018.2
20260902023352 63 224 0.0 0.0 0.00 0.01 0.01 94 1018.1
20260902022855 63 224 0.0 0.0 0.00 0.01 0.01 94 1018.1
20260902022340 63 224 0.0 0.0 0.00 0.01 0.01 94 1018.2
20260902021846 63 224 0.0 0.0 0.00 0.01 0.01 94 1018.2
20260902021349 63 224 0.0 0.0 0.00 0.01 0.01 94 1018.3
20260902020854 63 224 0.0 0.0 0.00 0.01 0.01 94 1018.3
20260902020350 63 224 0.0 0.0 0.00 0.01 0.01 94 1018.3
20260902015918 63 224 0.0 0.0 0.00 0.01 0.01 93 1018.3
20260902015401 63 224 0.0 0.0 0.00 0.01 0.01 93 1018.2
20260902014844 63 224 0.0 0.0 0.00 0.01 0.01 93 1018.1
20260902014348 63 224 0.0 0.0 0.00 0.01 0.01 93 1018.1
20260902013853 63 224 0.0 1.0 0.00 0.01 0.01 93 1018.1
20260902013357 63 224 0.0 1.0 0.00 0.01 0.01 93 1018.2
20260902012844 63 224 0.0 1.0 0.00 0.01 0.01 93 1018.2
20260902012408 63 224 0.0 0.0 0.00 0.01 0.01 93 1018.3
20260902011851 63 224 0.0 0.0 0.00 0.01 0.01 93 1018.3
20260902011356 63 224 0.0 0.0 0.00 0.01 0.01 93 1018.2
20260902010842 63 224 0.0 0.0 0.00 0.01 0.01 93 1018.1
20260902010349 63 224 0.0 0.0 0.00 0.01 0.01 93 1018.0
20260902005856 63 224 0.0 1.0 0.00 0.01 0.01 93 1018.0
20260902005343 63 224 0.0 3.0 0.00 0.01 0.01 93 1018.0
20260902004846 63 224 0.0 3.0 0.00 0.01 0.01 93 1018.1
20260902004351 63 224 0.0 2.0 0.00 0.01 0.01 93 1018.1
20260902003858 63 224 0.0 2.0 0.00 0.01 0.01 93 1018.0
20260902003342 63 224 0.0 1.0 0.00 0.01 0.01 93 1017.9
20260902002844 63 224 0.0 1.0 0.00 0.01 0.01 93 1017.7
20260902002348 63 224 0.0 1.0 0.00 0.01 0.01 93 1017.6
20260902001849 63 224 0.0 1.0 0.00 0.01 0.01 93 1017.5
20260902001354 63 224 0.0 1.0 0.00 0.01 0.01 93 1017.5
20260902000919 63 224 0.0 0.0 0.00 0.01 0.01 93 1017.6
20260902000353 63 224 0.0 0.0 0.00 0.01 0.01 93 1017.6
20260901235902 63 224 0.0 1.0 0.00 0.01 0.01 93 1017.6
20260901235346 63 224 0.0 1.0 0.00 0.01 0.01 93 1017.7
20260901234848 63 224 0.0 1.0 0.00 0.01 0.01 93 1017.8
20260901234352 63 224 0.0 2.0 0.00 0.01 0.01 93 1017.8
20260901233858 63 224 0.0 2.0 0.00 0.01 0.01 93 1017.7
20260901233340 63 224 0.0 4.0 0.00 0.01 0.01 93 1017.7
20260901232843 64 224 1.0 4.0 0.00 0.01 0.01 93 1017.7
20260901232350 64 221 0.0 2.0 0.00 0.01 0.01 93 1017.6
20260901231913 64 221 0.0 2.0 0.00 0.01 0.01 93 1017.6
20260901231354 64 221 0.0 2.0 0.00 0.01 0.01 93 1017.6
20260901230920 64 221 0.0 0.0 0.00 0.01 0.01 93 1017.6
20260901230355 64 221 0.0 1.0 0.00 0.01 0.01 93 1017.6
20260901225903 64 221 0.0 1.0 0.00 0.01 0.01 93 1017.5
20260901225348 64 221 0.0 1.0 0.00 0.01 0.01 93 1017.3
20260901224850 64 221 0.0 1.0 0.00 0.01 0.01 93 1017.4
20260901224353 64 221 0.0 0.0 0.00 0.01 0.01 93 1017.4
20260901223901 64 221 0.0 1.0 0.00 0.01 0.01 93 1017.3
20260901223403 64 221 0.0 1.0 0.00 0.01 0.01 93 1017.4
20260901222852 64 221 0.0 2.0 0.00 0.01 0.01 93 1017.5
20260901222354 64 221 0.0 2.0 0.00 0.01 0.01 93 1017.5
20260901221857 64 221 0.0 1.0 0.00 0.01 0.01 93 1017.5
20260901221400 64 221 0.0 3.0 0.00 0.01 0.01 93 1017.5
20260901220845 64 221 2.0 4.0 0.00 0.01 0.01 93 1017.5
20260901220357 64 229 0.0 4.0 0.00 0.01 0.01 93 1017.4
20260901215903 64 229 1.0 5.0 0.00 0.01 0.01 93 1017.3
20260901215348 64 227 2.0 5.0 0.00 0.01 0.01 93 1017.4
20260901214846 65 232 0.0 3.0 0.00 0.01 0.01 93 1017.5
20260901214350 65 232 1.0 3.0 0.00 0.01 0.01 93 1017.4
20260901213857 65 232 0.0 0.0 0.00 0.01 0.01 93 1017.4
20260901213400 65 232 0.0 1.0 0.00 0.01 0.01 93 1017.3
20260901212845 65 232 0.0 0.0 0.00 0.01 0.01 93 1017.2
20260901212409 64 232 0.0 1.0 0.00 0.01 0.01 93 1017.4
20260901211850 65 232 0.0 1.0 0.00 0.01 0.01 93 1017.3
20260901211356 65 232 0.0 1.0 0.00 0.01 0.01 93 1017.3
20260901210900 65 232 0.0 0.0 0.00 0.01 0.01 93 1017.4
20260901210354 65 232 0.0 1.0 0.00 0.01 0.01 93 1017.3
20260901205921 65 232 0.0 2.0 0.00 0.01 0.01 93 1017.1
20260901205401 65 232 0.0 2.0 0.00 0.01 0.01 93 1017.1
20260901204858 65 232 0.0 1.0 0.00 0.01 0.01 93 1017.0
20260901204401 65 232 0.0 0.0 0.00 0.01 0.01 93 1017.0
20260901203845 64 232 0.0 2.0 0.00 0.01 0.01 93 1016.9
20260901203347 64 232 0.0 2.0 0.00 0.01 0.01 93 1017.0
20260901202852 64 232 1.0 3.0 0.00 0.01 0.01 93 1016.9
20260901202356 65 232 0.0 4.0 0.00 0.01 0.01 93 1016.8
20260901201855 65 232 2.0 4.0 0.00 0.01 0.01 93 1016.7
20260901201400 65 229 0.0 3.0 0.00 0.01 0.01 93 1016.7
20260901200847 65 229 1.0 3.0 0.00 0.01 0.01 93 1016.7
20260901200344 65 229 0.0 3.0 0.00 0.01 0.01 93 1016.8
20260901195852 65 229 1.0 4.0 0.00 0.01 0.01 93 1016.7
20260901195417 65 230 1.0 5.0 0.00 0.01 0.01 93 1016.7
20260901194856 65 232 1.0 5.0 0.00 0.01 0.01 93 1016.7
20260901194359 65 229 0.0 5.0 0.00 0.01 0.01 92 1016.7
20260901193903 65 229 3.0 5.0 0.00 0.01 0.01 93 1016.6
20260901193403 66 224 0.0 3.0 0.00 0.01 0.01 93 1016.6
20260901192903 66 223 0.0 3.0 0.00 0.01 0.01 93 1016.6
20260901192348 66 223 1.0 3.0 0.00 0.01 0.01 93 1016.5
20260901191849 66 224 0.0 3.0 0.00 0.01 0.01 93 1016.6